Location: Mahannah Oil Field
(37.4664°N, 96.6003°W)
Time: 08:39:52
(UTC+00:00)

Courier 1B - Pass Details

Date: 21 January 2021
Orbit: 962 x 1209 km, 28.3° (Epoch: 02 March)

Event Time Altitude Azimuth Distance (km) Brightness Sun altitude
Rises 04:58:23 0° 204° (SSW) 3,717 - -62.1°
Reaches altitude 10° 05:03:05 10° 175° (S) 2,725 - -62.9°
Maximum altitude 05:05:26 12° 153° (SSE) 2,561 - -63.3°
Drops below altitude 10° 05:07:45 10° 132° (SE) 2,697 - -63.7°
Sets 05:12:19 0° 103° (ESE) 3,633 - -64.4°
